User: anonymous   Login
Location: Unspecified
(0.0000°N, 0.0000°E)
Time: 21:43:54
(UTC+00:00)
Language:

COSMOS 2400 - Orbit

View from above orbital plane
View from above orbital plane
View from above satellite
View from above satellite

Ground track
Ground track

The orbit data is extracted from the following two-line orbital elements,

1 27868U 03037A   17117.77566180 +.00000004 +00000-0 -39757-4 0  9991
2 27868 082.4685 262.3289 0022375 157.2310 202.9769 12.45132088622285
Epoch (UTC): 27 April 2017 18:36:57
Eccentricity: 0.0022375
inclination: 82.4685°
perigee height: 1467 km
apogee height: 1502 km
right ascension of ascending node: 262.3289°
argument of perigee: 157.2310°
revolutions per day: 12.45132088
mean anomaly at epoch: 202.9769°
orbit number at epoch: 62228

The dashed part of the orbit path shows where the satellite is in the earth's shadow,  

DLR